www.pogodaiklimat.ru

Погода и климат >> Архив погоды >> Великобритания >> Магиллиган


ПОГОДА на Магиллигане

  • Прогноз погоды на Магиллигане
  • Монитор погоды на Магиллигане

АРХИВ ПОГОДЫ на Магиллигане

Время (UTC), дата Ветер
(напр.,м/с)
 
Видим.   Явления Облачность Т
(С)
Тd
(С)
f
(%)
Тe
(С)
Тes
(С)
Комфортность P
(гПа)
Po
(гПа)
Тmin
(С)
Tmax
(С)
R
(мм)
R24
(мм)
S
(см)
07 12.06 С 9 27 км н/о +11.4 +8.1 80 +8 +8 1019.7 1018.9
08 12.06 С 8
{13}
25 км н/о +11.7 +8.0 78 +8 +8 1019.7 1018.9
09 12.06 С 8 30 км н/о +13.7 +9.1 74 +11 +11 1019.7 1019.0
10 12.06 С 8 30 км н/о +13.7 +8.6 71 +11 +11 1019.3 1018.5
11 12.06 С 8 21 км н/о +14.2 +9.4 73 +12 +12 1019.1 1018.4
12 12.06 С 9
{13}
18 км н/о +13.9 +8.4 69 +11 +11 1018.8 1018.1
13 12.06 С 9
{14}
30 км н/о +14.0 +8.8 71 +11 +11 1018.2 1017.4
14 12.06 С 8
{14}
18 км н/о +13.1 +9.0 76 +10 +10 1017.7 1017.0
15 12.06 С 8 17 км н/о +13.5 +9.4 76 +11 +11 1017.0 1016.2
16 12.06 С 10
{14}
16 км н/о +14.0 +8.9 71 +11 +11 1016.3 1015.6
17 12.06 С 8
{13}
17 км н/о +13.0 +9.2 78 +10 +10 1016.0 1015.3
18 12.06 С 8 14 км н/о +12.9 +9.6 80 +10 +10 1015.5 1014.8 +14.8
19 12.06 С 8 14 км н/о +12.0 +9.5 85 +9 +9 1015.3 1014.6
20 12.06 С 8 12 км н/о +12.0 +9.6 85 +9 +9 1015.0 1014.2
21 12.06 С 7 12 км н/о +11.7 +9.8 88 +8 +8 1015.1 1014.4
22 12.06 СВ 7 14 км слаб. ливневой дождь н/о +10.8 +9.5 92 +7 +7 1015.0 1014.2
23 12.06 СВ 8 26 км слаб. дождь н/о +10.6 +9.1 90 +7 +7 1014.1 1013.4
00 13.06 СВ 8
{13}
35 км слаб. ливневой дождь н/о +10.5 +8.8 89 +7 +7 1013.5 1012.8 0.8
01 13.06 СВ 8 19 км слаб. морось с дождем н/о +10.2 +8.8 91 +6 +6 1012.9 1012.1
02 13.06 С 6 12 км слаб. дождь н/о +10.2 +9.0 92 +7 +7 1012.0 1011.3
03 13.06 С 5 18 км слаб. дождь н/о +10.2 +8.9 92 +7 +7 1011.6 1010.9
04 13.06 С 9 21 км в посл. час дождь н/о +9.9 +8.0 88 +6 +6 1011.3 1010.5
05 13.06 С 9
{13}
19 км н/о +9.7 +7.3 85 +5 +5 1011.0 1010.2
06 13.06 С 9
{13}
22 км н/о +9.7 +7.0 83 +5 +5 1010.2 1009.5 +9.6 2
07 13.06 С 9
{14}
27 км н/о +9.8 +6.7 81 +5 +5 1009.7 1009.0
08 13.06 С 9
{14}
30 км н/о +9.9 +5.5 74 +6 +6 1009.3 1008.6
09 13.06 С 8 26 км н/о +10.0 +5.2 72 +6 +6 1009.1 1008.3
10 13.06 С 7 35 км н/о +10.0 +5.3 73 +6 +6 1008.5 1007.8
11 13.06 С 7 24 км в посл. час дождь н/о +9.7 +5.4 75 +6 +6 1008.0 1007.2
12 13.06 С 7 30 км н/о +9.6 +5.1 74 +6 +6 1007.4 1006.7 0.0
13 13.06 С 7 30 км слаб. морось с дождем н/о +9.7 +6.6 81 +6 +6 1006.7 1006.0
14 13.06 С 5 22 км в посл. час дождь н/о +8.9 +6.3 84 +5 +5 1006.4 1005.6
15 13.06 СЗ 6 26 км слаб. морось с дождем н/о +9.2 +6.4 83 +6 +6 1005.9 1005.2
16 13.06 С 7 30 км в посл. час дождь н/о +9.8 +5.3 74 +6 +6 1005.1 1004.4
17 13.06 СЗ 6 45 км в посл. час дождь н/о +10.4 +5.0 69 +7 +7 1004.7 1003.9
18 13.06 СЗ 6 35 км н/о +9.9 +4.9 71 +7 +7 1004.4 1003.6 +10.6 0.0
19 13.06 СЗ 5 40 км в посл. час дождь н/о +9.5 +5.5 76 +6 +6 1004.2 1003.5
20 13.06 СЗ 4 40 км в посл. час дождь н/о +9.3 +5.8 79 +6 +6 1004.0 1003.2
21 13.06 З 5 50 км н/о +9.3 +5.8 79 +6 +6 1004.0 1003.3
22 13.06 СЗ 5 8000 м ливневой дождь н/о +8.1 +6.3 88 +4 +4 1004.1 1003.4
23 13.06 ЮЗ 2 35 км в посл. час дождь н/о +7.4 +5.5 88 +5 +5 1003.9 1003.2
00 14.06 З 5 50 км слаб. ливневой дождь н/о +8.0 +5.3 83 +4 +4 1003.6 1002.9 0.6
01 14.06 ЮЗ 2 50 км в посл. час дождь н/о +7.7 +6.3 91 +6 +6 1003.3 1002.6
02 14.06 ЮЗ 4 45 км н/о +8.1 +6.9 92 +5 +5 1002.9 1002.1
03 14.06 ЮЗ 5 40 км н/о +8.0 +7.1 94 +4 +4 1002.6 1001.9
04 14.06 Ю 4 50 км н/о +7.4 +6.2 92 +4 +4 1002.5 1001.8
05 14.06 Ю 4 50 км в посл. час дождь н/о +7.2 +5.8 91 +4 +4 1002.7 1002.0
06 14.06 ЮЗ 4 30 км слаб. ливневой дождь н/о +7.6 +6.3 91 +4 +4 1002.7 1002.0 +7.2 0.8
07 14.06 Ю 4 50 км слаб. дождь н/о +8.5 +6.8 89 +5 +5 1002.8 1002.1
08 14.06 ЮЗ 6 45 км в посл. час дождь н/о +10.0 +6.7 80 +7 +7 1003.0 1002.3
09 14.06 ЮЗ 6 45 км н/о +11.3 +6.6 73 +9 +9 1003.3 1002.6
10 14.06 ЮЗ 6 40 км н/о +12.8 +7.1 68 +11 +11 1003.2 1002.5
11 14.06 ЮЗ 5 50 км н/о +13.3 +5.5 59 +11 +11 1003.5 1002.8
12 14.06 ЮЗ 4 50 км н/о +13.9 +4.9 55 +13 +13 1003.6 1002.9 0.0
13 14.06 З 3 50 км н/о +14.0 +5.6 57 +13 +13 1003.6 1002.8
14 14.06 СВ 6 35 км н/о +12.3 +8.7 79 +10 +10 1003.8 1003.0
15 14.06 СВ 6 50 км н/о +12.0 +7.6 74 +9 +9 1003.7 1003.0
16 14.06 СЗ 2 35 км в посл. час дождь н/о +12.5 +7.9 74 +12 +12 1003.9 1003.2
17 14.06 В 2 45 км н/о +12.7 +8.3 75 +12 +12 1003.9 1003.2
18 14.06 ЮЗ 1 24 км слаб. дождь н/о +11.5 +7.2 75 +11 +11 1004.1 1003.4 +15.1 0.2
19 14.06 В 3 45 км в посл. час дождь н/о +11.4 +8.5 82 +10 +10 1004.1 1003.4
20 14.06 СВ 1 35 км слаб. ливневой дождь н/о +11.0 +8.7 86 +11 +11 1004.0 1003.3
21 14.06 В 2 45 км слаб. дождь н/о +9.9 +8.7 92 +9 +9 1004.3 1003.5
22 14.06 ЮВ 2 50 км слаб. ливневой дождь н/о +9.7 +8.7 93 +8 +8 1004.5 1003.8
23 14.06 Ю 2 50 км в посл. час дождь н/о +8.4 +7.6 95 +7 +7 1004.4 1003.7
00 15.06 Ю 1 8000 м дымка н/о +7.0 +6.5 97 +6 +6 1004.7 1004.0 0.4
01 15.06 Ю 3 27 км н/о +8.3 +8.0 98 +6 +6 1004.7 1003.9
02 15.06 Ю 3 17 км н/о +8.1 +7.3 95 +6 +6 1004.9 1004.2
03 15.06 Ю 3 18 км н/о +8.7 +7.8 94 +6 +6 1005.2 1004.5
04 15.06 Ю 3 14 км н/о +8.2 +7.3 94 +5 +5 1005.4 1004.6
05 15.06 Ю 3 15 км н/о +7.9 +7.2 95 +5 +5 1005.6 1004.9
06 15.06 ЮЗ 2 14 км н/о +8.7 +8.0 95 +7 +7 1005.8 1005.1 +6.7 0.4
07 15.06 Ю 2 18 км н/о +9.2 +8.1 93 +8 +8 1006.1 1005.3
08 15.06 З 1 30 км н/о +9.7 +8.4 92 +9 +9 1006.3 1005.6
09 15.06 З 2 35 км н/о +11.9 +9.0 82 +11 +11 1006.4 1005.6
10 15.06 С 2 29 км н/о +11.9 +8.7 81 +11 +11 1006.4 1005.7
11 15.06 СВ 2 40 км в посл. час дождь н/о +12.7 +9.3 80 +12 +12 1006.5 1005.8
12 15.06 СВ 3 30 км в посл. час дождь н/о +12.1 +9.6 85 +11 +11 1006.9 1006.2 0.0
13 15.06 СВ 3 30 км в посл. час дождь н/о +12.6 +10.0 84 +11 +11 1007.0 1006.2
14 15.06 СВ 3 35 км н/о +12.6 +9.4 81 +11 +11 1007.1 1006.4
15 15.06 СВ 2 35 км слаб. ливневой дождь н/о +12.9 +9.7 81 +12 +12 1007.2 1006.5
16 15.06 СВ 3 45 км в посл. час дождь н/о +12.6 +9.7 82 +11 +11 1007.1 1006.3
17 15.06 СВ 3 45 км н/о +12.0 +9.1 82 +11 +11 1007.3 1006.6
18 15.06 В 3 50 км н/о +12.1 +8.7 80 +11 +11 1007.4 1006.6 +13.3 0.2
19 15.06 В 2 45 км н/о +12.1 +8.7 80 +11 +11 1007.4 1006.7
20 15.06 Ю 3 28 км слаб. ливневой дождь н/о +11.1 +8.6 85 +9 +9 1008.1 1007.3
21 15.06 ЮВ 2 29 км слаб. дождь н/о +9.3 +8.2 93 +7 +7 1008.1 1007.4
22 15.06 Ю 2 50 км в посл. час дождь н/о +9.3 +8.2 93 +7 +7 1008.3 1007.6
23 15.06 Ю 3 45 км н/о +8.9 +8.2 95 +6 +6 1008.2 1007.5
00 16.06 ЮЗ 3 50 км н/о +8.7 +7.8 94 +6 +6 1008.4 1007.7 1
01 16.06 Ю 3 50 км н/о +8.4 +7.6 95 +6 +6 1008.2 1007.5
02 16.06 ЮЗ 2 50 км н/о +7.1 +6.4 95 +5 +5 1008.0 1007.2
03 16.06 Ю 3 50 км н/о +8.1 +7.4 95 +5 +5 1007.7 1007.0
04 16.06 ЮЗ 3 50 км н/о +8.1 +6.8 91 +5 +5 1007.7 1006.9
05 16.06 ЮЗ 3 50 км н/о +8.2 +6.9 92 +5 +5 1007.7 1007.0
06 16.06 ЮЗ 3 50 км н/о +8.6 +7.0 90 +6 +6 1007.8 1007.1 +6.8 1
07 16.06 Ю 3 35 км н/о +11.7 +8.2 79 +10 +10 1008.2 1007.5
08 16.06 Ю 3 50 км н/о +12.0 +8.3 78 +10 +10 1008.3 1007.6
09 16.06 ЮЗ 3 45 км н/о +13.9 +8.8 71 +13 +13 1008.3 1007.6
10 16.06 З 2 30 км н/о +12.9 +7.2 68 +12 +12 1008.2 1007.5
11 16.06 СЗ 2 40 км н/о +14.2 +7.7 65 +14 +14 1008.0 1007.3
12 16.06 Ю 3 35 км н/о +14.6 +7.6 63 +14 +14 1007.9 1007.2
13 16.06 Ю 5 45 км н/о +15.2 +7.8 61 +14 +14 1007.7 1007.0
14 16.06 Ю 4 35 км н/о +15.6 +8.7 63 +15 +15 1007.4 1006.7
15 16.06 Ю 4 35 км н/о +15.2 +8.1 63 +14 +14 1007.0 1006.3
16 16.06 Ю 4 50 км в посл. час дождь н/о +15.6 +8.5 63 +15 +15 1006.5 1005.8
17 16.06 Ю 5 40 км слаб. ливневой дождь н/о +15.2 +8.7 65 +14 +14 1005.9 1005.2
18 16.06 Ю 5 21 км слаб. ливневой дождь н/о +13.1 +10.0 81 +11 +11 1005.7 1005.0 +16.7 0.6
19 16.06 ЮЗ 3 16 км слаб. дождь н/о +12.4 +11.0 91 +11 +11 1005.7 1004.9
20 16.06 СЗ 3 5000 м сильн. дождь н/о +11.4 +10.8 96 +9 +9 1005.0 1004.3
21 16.06 В 4 26 км слаб. дождь н/о +9.9 +9.2 95 +7 +7 1004.1 1003.4
22 16.06 СВ 2 12 км ливневой дождь н/о +10.7 +10.2 97 +10 +10 1004.4 1003.6
23 16.06 Ю 4 50 км в посл. час дождь н/о +10.7 +10.0 95 +8 +8 1004.6 1003.9
00 17.06 ЮЗ 6 50 км н/о +10.2 +9.3 94 +7 +7 1005.5 1004.8 14
01 17.06 Ю 4 50 км н/о +8.8 +7.8 93 +6 +6 1005.9 1005.2
02 17.06 Ю 4 50 км н/о +9.6 +8.8 95 +7 +7 1006.3 1005.5
03 17.06 Ю 4 50 км н/о +9.7 +8.8 94 +7 +7 1006.1 1005.3
04 17.06 Ю 4 35 км н/о +10.2 +9.0 92 +8 +8 1006.0 1005.3
05 17.06 Ю 4 27 км слаб. ливневой дождь н/о +10.9 +9.5 91 +8 +8 1005.9 1005.2
06 17.06 Ю 6 30 км в посл. час дождь н/о +11.7 +9.8 88 +9 +9 1005.9 1005.2 +8.7 14
07 17.06 Ю 6 30 км н/о +12.0 +9.8 86 +9 +9 1006.0 1005.3
08 17.06 Ю 9
{13}
40 км н/о +14.0 +10.1 77 +11 +11 1005.9 1005.2
09 17.06 Ю 9
{13}
35 км н/о +13.9 +10.3 79 +11 +11 1005.9 1005.2
10 17.06 Ю 11
{15}
40 км н/о +15.2 +9.5 69 +13 +13 1005.5 1004.8
11 17.06 Ю 10
{15}
35 км н/о +15.7 +11.0 74 +14 +14 1005.8 1005.1
12 17.06 ЮЗ 11
{15}
45 км в посл. час дождь н/о +13.4 +10.2 81 +10 +10 1006.5 1005.8 0.2
13 17.06 ЮЗ 9
{15}
40 км в посл. час дождь н/о +15.7 +10.8 73 +14 +14 1007.1 1006.4
14 17.06 ЮЗ 8 40 км н/о +15.9 +9.8 67 +14 +14 1007.8 1007.1
15 17.06 ЮЗ 7 35 км н/о +15.4 +10.2 71 +14 +14 1008.2 1007.5
16 17.06 ЮЗ 7 40 км н/о +15.4 +10.7 74 +14 +14 1008.4 1007.7
17 17.06 ЮЗ 5 50 км в посл. час дождь н/о +14.4 +10.4 77 +13 +13 1008.9 1008.2
18 17.06 Ю 4 40 км н/о +14.5 +10.0 74 +13 +13 1009.0 1008.3 +17.1 0.6
19 17.06 ЮЗ 3 40 км слаб. ливневой дождь н/о +14.9 +10.5 75 +14 +14 1009.2 1008.5
20 17.06 ЮЗ 5 40 км в посл. час дождь н/о +14.9 +10.1 73 +13 +13 1009.6 1008.9
21 17.06 З 5 50 км в посл. час дождь н/о +12.6 +9.3 80 +10 +10 1009.9 1009.2
22 17.06 Ю 4 50 км н/о +10.6 +8.1 85 +8 +8 1010.1 1009.4
23 17.06 Ю 5 50 км н/о +11.3 +8.7 84 +9 +9 1010.2 1009.5
00 18.06 Ю 4 45 км н/о +11.2 +9.2 87 +9 +9 1010.0 1009.3 0.2
01 18.06 Ю 5 50 км н/о +10.6 +8.7 88 +8 +8 1009.8 1009.0
02 18.06 Ю 5 40 км н/о +9.8 +8.1 89 +6 +6 1009.6 1008.8
03 18.06 ЮЗ 7 45 км н/о +9.9 +8.1 89 +6 +6 1009.4 1008.7
04 18.06 ЮЗ 6 40 км н/о +9.8 +8.1 89 +6 +6 1009.4 1008.6
05 18.06 ЮЗ 7 40 км н/о +10.6 +8.7 88 +7 +7 1009.5 1008.8
06 18.06 ЮЗ 7 45 км н/о +10.8 +8.5 86 +7 +7 1009.6 1008.9 +9.5 0.2
07 18.06 ЮЗ 8 40 км н/о +11.7 +9.1 84 +8 +8 1010.2 1009.5
08 18.06 ЮЗ 9 26 км н/о +12.1 +9.8 86 +9 +9 1010.4 1009.7
09 18.06 ЮЗ 8 35 км н/о +13.0 +10.2 83 +10 +10 1010.5 1009.8
10 18.06 ЮЗ 7 35 км н/о +13.4 +10.6 83 +11 +11 1010.6 1009.9
11 18.06 ЮЗ 6 35 км слаб. ливневой дождь н/о +13.7 +11.1 84 +11 +11 1010.7 1010.0
12 18.06 ЮЗ 7 30 км в посл. час дождь н/о +14.1 +11.3 83 +12 +12 1010.8 1010.1 0.0
13 18.06 ЮЗ 6 45 км в посл. час дождь н/о +14.2 +10.7 79 +12 +12 1010.6 1009.9
14 18.06 ЮЗ 5 15 км ливневой дождь н/о +14.1 +11.1 82 +12 +12 1010.6 1009.9
15 18.06 ЮЗ 4 45 км в посл. час дождь н/о +13.8 +12.2 90 +12 +12 1010.7 1010.0
16 18.06 З 6 45 км н/о +15.0 +11.6 80 +13 +13 1010.4 1009.6
17 18.06 ЮЗ 5 50 км в посл. час дождь н/о +15.1 +10.7 75 +14 +14 1010.1 1009.4
18 18.06 ЮЗ 4 14 км слаб. морось с дождем н/о +13.9 +10.6 80 +12 +12 1010.1 1009.4 +16.1 1
19 18.06 ЮЗ 4 45 км в посл. час дождь н/о +14.3 +10.6 78 +13 +13 1009.9 1009.2
20 18.06 З 4 35 км н/о +13.9 +10.5 80 +12 +12 1009.8 1009.1
21 18.06 З 4 45 км н/о +13.6 +10.2 80 +12 +12 1009.9 1009.2
22 18.06 З 5 50 км в посл. час дождь н/о +13.1 +9.9 81 +11 +11 1009.9 1009.2
23 18.06 З 6 40 км н/о +12.4 +8.9 79 +10 +10 1009.7 1008.9
00 19.06 ЮЗ 4 45 км н/о +11.0 +9.2 89 +9 +9 1009.4 1008.6 0.2
01 19.06 Ю 4 35 км н/о +10.0 +8.5 90 +7 +7 1008.8 1008.1
02 19.06 Ю 4 30 км н/о +10.0 +8.2 89 +7 +7 1008.6 1007.9
03 19.06 Ю 4 45 км н/о +10.9 +9.1 89 +8 +8 1008.3 1007.5
04 19.06 Ю 4 30 км н/о +9.8 +8.3 90 +7 +7 1007.8 1007.1
05 19.06 Ю 4 40 км н/о +10.3 +8.9 91 +8 +8 1007.6 1006.9
06 19.06 Ю 5 45 км н/о +11.8 +9.5 86 +9 +9 1007.6 1006.9 +9.5 0.2
07 19.06 Ю 4 45 км н/о +12.1 +9.5 84 +10 +10 1007.6 1006.9
08 19.06 ЮЗ 7 10 км морось с дождем н/о +12.0 +10.0 88 +9 +9 1007.4 1006.7

 

Местоположение метеостанции Магиллиган (Великобритания): широта 55.15 долгота -6.93 высота над уровнем моря 6 м.

В архиве по умолчанию представлена погода на Магиллигане за последнюю неделю. Архивные данные за месяц целиком и за предыдущие месяцы, начиная с января 2011 года, Вы можете получить, выбрав интересующий диапазон дат из раскрывающегося списка и нажав кнопку "Ввод!".


*Определитесь, кто Вы:
робот инопланетянин человек

Внимание! Время в таблицах - всемирное. Для получения местного времени необходимо прибавить поправку, которая равна 0 ч.

Смотрите также архив погоды в соседних городах и на ближайших метеорологических станциях:

Погода в Малин Хед (Ирландия) (36 км)
Погода в Портгленоне (Великобритания) (44 км)
Погода на Озере Lough Fea (Великобритания) (48 км)
Погода в Баллипатрик Форест (Великобритания) (48 км)
Погода в Каследерге (Великобритания) (65 км)
Погода в Белфасте (Великобритания) (72 км)
Погода в Порт-Эллене (Великобритания) (73 км)
Погода в Макрайханише (Великобритания) (84 км)
Погода в Томастауне (Великобритания) (101 км)
Погода в Гленане (Великобритания) (106 км)

Пояснения к столбцам:

Ветер - указаны скорость ветра в м/с - средняя за 10 мин, порывы в срок и между сроками (в фигурных скобках) и направление, откуда дует ветер: С - северный, СВ - северо-восточный, В - восточный, ЮВ - юго-восточный, Ю - южный, ЮЗ - юго-западный, З - западный, СЗ - северо-западный.
Видимость - горизонтальная дальность видимости в метрах или километрах. При видимости от 1 до 10 км при отсутствии осадков обычно наблюдается дымка, при ухудшении видимости до 1 км и менее - туман. В сухую погоду видимость может ухудшаться дымом, пылью или мглою.
Явления - указаны атмосферные явления, наблюдавшиеся в срок или в последний час перед сроком; фигурными скобками обозначены явления, наблюдавшиеся между сроками (за 1-3 часа до срока); квадратными скобками обозначены град или гололедные отложения с указанием их диаметра в мм.
Облачность - указаны через наклонную черту общая и нижняя облачность в баллах и высота нижней границы облаков в метрах; квадратными скобками обозначены формы облаков: Ci - перистые, Cs - перисто-слоистые, Cc - перисто-кучевые, Ac - высококучевые, As - высокослоистые, Sc - слоисто-кучевые, Ns - слоисто-дождевые, Cu - кучевые, Cb - кучево-дождевые. Подробнее классификацию облаков см. в Атласе облаков (PDF).
T - Температура воздуха - температура, измеренная на высоте 2 м над землей.
Td - Температура точки росы - температура, при понижении до которой содержащийся в воздухе водяной пар достигнет насыщения.
f - Относительная влажность воздуха - влажноcть воздуха, измеренная на высоте 2 м над землей.
Te - Эффективная температура - температура, которую ощущает одетый по сезону человек в тени. Характеристика душности погоды. При расчете учитывается влияние влажности воздуха и скорости ветра на теплоощущения человека.
Tes - Эффективная температура на солнце - температура, которую ощущает человек, с поправкой на солнечный нагрев. Характеристика знойности погоды. Зависит от высоты солнца над горизонтом, облачности и скорости ветра. Ночью, в пасмурную погоду, а также при ветре 12 м/с и более поправка равна нулю.
P - Атмосферное давление - приведенное к уровню моря атмосферное давление.
Po - Атмосферное давление - измеренное на уровне метеостанции атмосферное давление.
Tmin - Минимальная температура - минимум температуры воздуха на высоте 2 м над землей.
Tmax - Максимальная температура - максимум температуры воздуха на высоте 2 м над землей.
R - Количество осадков - Количество выпавших осадков за период времени, мм. При наведении курсора мыши на число - период времени, за который выпало указанное количество осадков.
R24 - Количество осадков - Количество выпавших осадков за 24 часа, мм.
S - Снежный покров - Высота снежного покрова, см. При наведении курсора мыши на число - состояние снежного покрова и степень покрытия местности в баллах.